Pope Field Airport, NC

1:30 AM EDT on April 20, 2018 (GMT -0400)
Pope Field Airport

Weather History for KPOB - May, 2014

Change the Weather History Date:

Thursday, May 8, 2014

  Actual Average Record
Temperature  
Mean Temperature 75 °F -  
Max Temperature 92 °F 77 °F 93 °F (2002)
Min Temperature 59 °F 54 °F 37 °F (1989)
Cooling Degree Days 10    
Growing Degree Days 25 (Base 50)    
Moisture  
Dew Point 58 °F    
Average Humidity 67    
Maximum Humidity 100    
Minimum Humidity 26    
Precipitation  
Precipitation 0.00 in - - ()
Sea Level Pressure  
Sea Level Pressure 30.12 in    
Wind  
Wind Speed 4 mph (WNW)    
Max Wind Speed 18 mph    
Max Gust Speed 26 mph    
Visibility 9 miles    
Events      
Averages and records for this station are not official NWS values.
T = Trace of Precipitation, MM = Missing Value Source: NWS Daily Summary

Daily Weather History Graph

Daily Weather History Graph

Search for Another Location

Airport or City:

Astronomy

May. 08, 2014 Rise Set
Actual Time 6:18 AM EDT 8:07 PM EDT
Civil Twilight 5:50 AM EDT 8:35 PM EDT
Nautical Twilight 5:17 AM EDT 9:08 PM EDT
Astronomical Twilight 4:41 AM EDT 9:44 PM EDT
Moon 2:19 PM EDT (5/8) 2:34 AM EDT (5/8)
Length of Visible Light 14h 44m
Length of Day
13h 49m
Waxing Gibbous, 64% of the Moon is Illuminated
May 8
Waxing Gibbous
May 14
Full
May 21
Last Quarter
May 28
New
Jun 5
First Quarter

Hourly Weather History & Observations

Time (EDT) Temp. Heat Index Dew Point Humidity Pressure Visibility Wind Dir Wind Speed Gust Speed Precip Events Conditions
12:58 AM 65.3 °F - 64.8 °F 98% 30.12 in 10.0 mi Calm Calm - N/A   Clear
1:48 AM 62.6 °F - 62.6 °F 100% 30.10 in 3.0 mi NNE 2.3 mph - N/A   Clear
1:53 AM 62.6 °F - 62.6 °F 100% 30.10 in 1.5 mi North 1.2 mph - N/A   Clear
1:58 AM 62.8 °F - 62.4 °F 99% 30.11 in 1.8 mi Calm Calm - N/A   Clear
2:03 AM 62.6 °F - 62.6 °F 100% 30.10 in 10.0 mi Calm Calm - N/A   Clear
2:23 AM 62.6 °F - 62.6 °F 100% 30.09 in 7.0 mi NE 2.3 mph - N/A   Clear
2:28 AM 62.6 °F - 60.8 °F 94% 30.09 in 4.0 mi NE 2.3 mph - N/A   Clear
2:38 AM 60.8 °F - 60.8 °F 100% 30.09 in 7.0 mi NE 1.2 mph - N/A   Clear
2:43 AM 60.8 °F - 60.8 °F 100% 30.09 in 6.0 mi NE 2.3 mph - N/A   Clear
2:48 AM 60.8 °F - 60.8 °F 100% 30.09 in 4.0 mi NNE 2.3 mph - N/A   Clear
2:53 AM 60.8 °F - 60.8 °F 100% 30.09 in 5.0 mi NE 1.2 mph - N/A   Clear
2:58 AM 61.3 °F - 61.0 °F 99% 30.10 in 8.0 mi NE 1.2 mph - N/A   Clear
3:03 AM 60.8 °F - 60.8 °F 100% 30.09 in 10.0 mi NNE 1.2 mph - N/A   Clear
3:13 AM 60.8 °F - 60.8 °F 100% 30.09 in 7.0 mi Calm Calm - N/A   Clear
3:18 AM 60.8 °F - 60.8 °F 100% 30.09 in 6.0 mi NE 1.2 mph - N/A   Clear
3:23 AM 60.8 °F - 60.8 °F 100% 30.09 in 7.0 mi NE 1.2 mph - N/A   Clear
3:28 AM 60.8 °F - 60.8 °F 100% 30.09 in 9.0 mi Calm Calm - N/A   Clear
3:58 AM 63.0 °F - 60.3 °F 91% 30.11 in 10.0 mi WSW 4.6 mph - N/A   Clear
4:58 AM 64.6 °F - 59.7 °F 84% 30.12 in 10.0 mi WSW 8.1 mph - N/A   Clear
5:58 AM 63.1 °F - 58.6 °F 85% 30.14 in 10.0 mi Calm Calm - N/A   Clear
6:58 AM 59.9 °F - 57.9 °F 93% 30.18 in 10.0 mi Calm Calm - N/A   Clear
7:58 AM 68.2 °F - 60.4 °F 76% 30.19 in 10.0 mi WSW 2.3 mph - N/A   Clear
8:58 AM 74.8 °F - 59.4 °F 58% 30.20 in 10.0 mi West 8.1 mph - N/A   Clear
9:58 AM 80.1 °F 80.9 °F 59.7 °F 50% 30.21 in 10.0 mi West 9.2 mph - N/A   Clear
10:58 AM 84.0 °F 84.2 °F 60.3 °F 45% 30.21 in 10.0 mi West 10.4 mph - N/A   Clear
11:58 AM 87.1 °F 85.7 °F 56.7 °F 35% 30.19 in 10.0 mi West 13.8 mph 24.2 mph N/A   Clear
12:58 PM 88.7 °F 86.5 °F 54.0 °F 30% 30.18 in 10.0 mi West 18.4 mph 24.2 mph N/A   Clear
1:15 PM 89.6 °F 87.7 °F 55.4 °F 31% 30.16 in 10.0 mi WSW 12.7 mph 24.2 mph N/A   Clear
1:48 PM 89.6 °F 87.3 °F 53.6 °F 29% 30.15 in 10.0 mi West 17.3 mph 21.9 mph N/A   Clear
1:58 PM 90.0 °F 87.7 °F 54.1 °F 29% 30.16 in 10.0 mi West 11.5 mph 17.3 mph N/A   Partly Cloudy
2:45 PM 91.4 °F - 51.8 °F 26% 30.13 in 10.0 mi WNW 15.0 mph 20.7 mph N/A   Clear
2:58 PM 91.2 °F - 51.6 °F 26% 30.14 in 10.0 mi WNW 15.0 mph 21.9 mph N/A   Clear
3:12 PM 91.4 °F - 51.8 °F 26% 30.12 in 10.0 mi West 15.0 mph 26.5 mph N/A   Clear
3:31 PM 89.6 °F 87.3 °F 53.6 °F 29% 30.11 in 10.0 mi West 15.0 mph - N/A   Clear
3:58 PM 90.9 °F 88.5 °F 53.1 °F 28% 30.11 in 10.0 mi WNW 13.8 mph 20.7 mph N/A   Clear
4:19 PM 91.4 °F 89.1 °F 53.6 °F 28% 30.09 in 10.0 mi West 12.7 mph - N/A   Clear
4:58 PM 91.2 °F 88.7 °F 53.1 °F 27% 30.09 in 10.0 mi West 17.3 mph 24.2 mph N/A   Clear
5:58 PM 90.1 °F - 52.7 °F 28% 30.09 in 10.0 mi West 16.1 mph 20.7 mph N/A   Clear
6:58 PM 88.0 °F 85.9 °F 54.0 °F 31% 30.09 in 10.0 mi West 13.8 mph - N/A   Clear
7:58 PM 82.4 °F 82.0 °F 57.0 °F 42% 30.11 in 10.0 mi West 8.1 mph - N/A   Clear
8:58 PM 77.5 °F - 59.4 °F 53% 30.12 in 10.0 mi Calm Calm - N/A   Clear
9:58 PM 73.2 °F - 59.9 °F 63% 30.14 in 10.0 mi Calm Calm - N/A   Clear
10:58 PM 68.7 °F - 60.1 °F 74% 30.14 in 10.0 mi West 3.5 mph - N/A   Clear
11:58 PM 76.3 °F - 59.0 °F 55% 30.14 in 10.0 mi SW 9.2 mph - N/A   Clear